SCP
0 0 0 0 0 0 0 0 0 0 0 0 0 0 0 0 0 0 0 0 0 0 0 0 0 0 0 0 0 0 0 0
0 0 0 0 0 0 0 0 0 0 0 0 0 0 0 0 0 0 0 0 0 0 0 0 0 0 0 0 0 0 0 0
0 0 0 0 0 0 0 0 0 0 0 0 0 0 0 0 0 0 0 0 0 0 0 0 0 0 0 0 0 0 0 0
0 0 0 0 0 0 0 0 0 0 0 0 0 0 0 0 0 0 0 0 0 0 0 0 0 0 0 0 0 0 0 0
0 0 0 0 0 0 0 0 0 0 0 0 0 0 0 0 0 0 0 0 0 0 0 0 0 0 0 0 0 0 0 0
0 0 0 0 0 0 0 0 0 0 0 0 0 0 0 0 0 0 0 0 0 0 0 0 0 0 0 0 0 0 0 0
0 0 0 0 0 0 0 0 0 0 0 0 0 0 0 0 0 0 0 0 0 0 0 0 0 0 0 0 0 0 0 0
0 0 0 0 -0 -0 -0 0 -0 -0 -0 0 0 0 0 0 0 0 0 0 0 0 0 0 0 0 0 0 0 0 0 0
0 0 0 -0 -0 0 -0 -0 0 0 0 0 0 0 0 0 0 0 0 0 0 0 0 0 0 0 0 0 0 0 0 0
-0 -0 -0 0 0 0 0 0 0 0 0 0 0 0 0 0 0 0 0 0 0 0 0 0 0 0 0 0 0 0 0 0
0 0 0 0 0 0 0 0 0 0 0 0 0 0 0 0 0 0 0 0 0 0 0 0 0 0 0 0 0 0 0 0
0 0 0 0 0 0 0 0 0 0 0 0 0 0 0 0 0 0 0 0 0 0 0 0 0 0 0 0 0 0 0 0
0 0 0 0 0 0 0 0 0 0 0 0 0 0 0 0 0 0 0 0 0 0 0 0 0 0 0 0 0 0 0 0
0 0 0 0 0 0 0 0 0 0 0 0 0 0 0 0 0 0 0 0 0 0 0 0 0 0 0 0 0 0 0 0
0 0 0 0 0 0 0 0 0 0 0 0 0 0 0 0 0 0 0 0 0 0 0 0 0 0 0 0 0 0 0 0
0 0 0 0 0 0 0 0 0 0 0 0 0 0 0 0 0 0 0 0 0 0 0 0 0 0 0 0 0 0 0 0
0 0 0 0 0 0 0 0 0 0 0 0 0 0 0 0 0 0 0 0 0 0 0 0 0 0 0 0 0 0 0 0
0 0 0 0 0 0 0 0 0 0 0 0 0 0 0 0 0 0 0 0 0 0 0 0 0 0 0 0 0 0 0 0
0 0 0 0 0 0 0 0 0 0 0 0 0 0 0 0 0 0 0 0 0 0 0 0 0 0 0 0 0 0 0 0
0 0 0 0 0 0 0 0 0 0 0 0 0 0 0 0 0 0 0 0 0 0 0 0 0 0 0 0 0 0 0 0
Wind_Speed_500mb
83 80 78 82 79 80 78 80 79 77 76 79 69 60 47 44 47 40 30 15 18 36 27 17 17 14 11 12 16 19 20 20
81 80 80 77 72 69 74 76 76 80 80 70 59 51 53 46 40 27 18 21 30 25 20 19 16 15 15 17 20 22 23 25
63 66 67 68 69 66 66 68 61 55 56 54 55 56 44 44 34 24 20 24 24 22 19 19 20 19 20 22 25 27 28 30
55 55 58 58 55 53 53 52 51 47 47 46 40 47 26 21 18 21 24 24 23 19 19 23 22 24 27 29 30 31 33 36
48 44 39 36 28 26 26 30 37 41 39 47 40 25 17 18 19 23 24 22 21 22 24 25 27 31 34 35 35 37 40 42
40 38 34 33 27 30 34 39 43 50 50 35 28 22 19 22 22 24 25 26 24 24 27 30 34 37 39 40 41 44 46 49
33 32 31 29 36 42 41 41 44 39 32 32 26 15 19 21 23 26 26 26 26 28 33 37 40 41 44 47 48 50 54 55
29 31 35 43 50 51 49 45 42 35 32 26 20 22 22 25 27 27 28 31 33 35 38 41 43 45 50 53 53 56 58 59
28 34 37 39 42 41 38 34 30 26 22 27 29 27 25 26 28 32 36 39 39 40 43 46 46 51 55 57 60 61 61 62
29 34 36 34 34 32 28 21 17 20 25 27 25 25 28 33 34 38 41 44 48 45 49 53 50 55 57 60 66 65 68 66
28 26 22 20 17 12 11 17 24 24 22 25 28 31 35 37 42 45 45 46 50 53 54 56 56 53 58 62 71 75 75 71
23 19 14 11 10 13 20 26 24 24 27 29 32 36 38 43 44 42 46 50 53 56 53 56 58 58 63 68 73 77 77 79
17 13 8 5 9 11 13 18 22 24 25 27 31 35 38 40 40 43 48 53 55 59 62 60 61 63 66 70 74 75 83 86
23 18 14 11 8 7 8 11 15 16 19 22 25 30 35 39 42 48 52 58 61 63 70 70 67 70 72 75 76 77 82 87
28 25 20 16 14 14 15 16 18 22 26 29 33 37 42 47 50 55 57 62 66 69 75 78 77 76 74 74 75 76 78 80
23 22 20 19 19 20 21 23 25 28 31 35 39 42 45 48 51 56 56 60 67 68 71 75 76 72 73 74 75 74 71 71
26 23 21 21 22 25 27 31 33 34 37 41 43 44 46 49 48 46 52 50 54 59 65 68 73 71 70 71 72 66 61 65
22 23 24 26 29 32 35 37 39 39 37 36 37 39 41 43 49 54 48 56 54 56 59 64 71 69 67 66 64 68 69 70
29 30 33 34 35 35 33 33 34 35 38 38 39 44 48 51 56 61 67 69 67 62 70 73 75 76 74 72 67 69 65 85
33 32 31 31 32 35 36 36 36 37 40 43 47 52 57 62 65 69 74 79 85 87 81 79 83 86 83 76 72 73 74 72
Wind_Direction_500mb
195 195 198 198 197 201 205 205 206 208 213 217 213 214 203 182 166 167 173 169 271 285 274 227 230 246 281 303 307 310 306 297
182 187 192 195 201 203 202 208 210 212 212 200 197 183 180 175 156 173 204 253 273 253 232 231 239 262 281 288 296 297 298 295
183 185 190 192 194 197 196 197 202 195 187 189 185 175 160 152 167 213 249 250 232 230 232 243 255 268 277 282 287 293 293 288
176 179 182 182 185 185 184 182 187 190 178 166 160 139 147 192 206 247 238 228 235 234 245 253 263 273 274 278 283 286 286 285
166 169 167 169 166 169 170 165 170 158 146 136 148 160 185 209 228 234 236 240 240 242 253 263 268 270 274 280 282 281 280 279
155 156 161 161 161 174 164 162 159 149 145 145 164 188 214 230 229 232 241 246 248 258 268 273 272 274 277 279 279 278 278 279
141 155 153 158 153 147 136 143 148 152 152 173 193 238 245 233 229 250 255 261 269 272 272 271 275 277 279 280 280 279 281 282
140 148 145 152 147 146 142 151 165 172 185 202 250 262 252 234 250 263 269 273 274 272 275 278 279 279 279 281 282 282 282 281
148 144 146 145 145 148 154 162 178 199 226 255 264 257 242 255 273 280 277 276 276 278 280 280 281 279 280 282 282 282 284 284
139 142 146 147 156 165 171 187 220 264 281 280 266 250 256 269 281 285 280 283 284 282 279 279 279 278 280 283 285 287 288 287
126 131 138 150 166 189 230 260 276 280 281 264 257 262 271 280 283 281 281 279 277 279 280 280 282 281 285 286 285 286 289 289
120 129 146 176 213 248 269 278 279 276 280 276 273 272 278 282 285 280 278 280 281 282 284 284 286 286 285 285 286 289 290 287
113 122 140 199 239 255 273 286 292 293 290 285 282 281 280 281 284 287 286 286 287 287 285 283 283 286 287 287 287 288 287 286
86 85 80 65 40 7 338 326 323 318 309 302 301 296 293 291 289 287 284 283 284 286 286 288 289 289 288 288 288 287 284 285
69 68 62 52 33 13 354 333 320 316 308 300 292 287 285 284 285 285 288 292 293 295 297 300 299 298 298 294 290 287 284 284
56 49 36 24 11 356 345 331 317 307 302 301 302 303 302 302 303 303 304 302 302 303 302 303 303 305 303 301 296 292 287 282
48 36 21 4 348 335 325 320 315 312 311 310 310 309 310 309 308 305 306 306 307 310 312 313 310 311 310 307 303 296 292 287
17 5 351 338 330 327 325 323 323 323 321 321 322 323 323 320 318 319 316 318 317 315 314 311 312 311 307 302 294 286 286 274
355 349 343 339 336 334 332 332 333 333 330 329 328 325 323 323 321 319 316 314 312 312 313 312 310 308 307 305 298 289 277 271
348 346 344 340 338 338 340 337 336 332 328 326 326 325 322 318 316 314 313 313 313 312 310 310 308 307 307 306 300 295 289 276
Wind_Speed_850mb
83 80 78 82 79 80 78 80 79 77 76 79 69 60 47 44 47 40 30 15 18 36 27 17 17 14 11 12 16 19 20 20
81 80 80 77 72 69 74 76 76 80 80 70 59 51 53 46 40 27 18 21 30 25 20 19 16 15 15 17 20 22 23 25
63 66 67 68 69 66 66 68 61 55 56 54 55 56 44 44 34 24 20 24 24 22 19 19 20 19 20 22 25 27 28 30
55 55 58 58 55 53 53 52 51 47 47 46 40 47 26 21 18 21 24 24 23 19 19 23 22 24 27 29 30 31 33 36
48 44 39 36 28 26 26 30 37 41 39 47 40 25 17 18 19 23 24 22 21 22 24 25 27 31 34 35 35 37 40 42
40 38 34 33 27 30 34 39 43 50 50 35 28 22 19 22 22 24 25 26 24 24 27 30 34 37 39 40 41 44 46 49
33 32 31 29 36 42 41 41 44 39 32 32 26 15 19 21 23 26 26 26 26 28 33 37 40 41 44 47 48 50 54 55
29 31 35 43 50 51 49 45 42 35 32 26 20 22 22 25 27 27 28 31 33 35 38 41 43 45 50 53 53 56 58 59
28 34 37 39 42 41 38 34 30 26 22 27 29 27 25 26 28 32 36 39 39 40 43 46 46 51 55 57 60 61 61 62
29 34 36 34 34 32 28 21 17 20 25 27 25 25 28 33 34 38 41 44 48 45 49 53 50 55 57 60 66 65 68 66
28 26 22 20 17 12 11 17 24 24 22 25 28 31 35 37 42 45 45 46 50 53 54 56 56 53 58 62 71 75 75 71
23 19 14 11 10 13 20 26 24 24 27 29 32 36 38 43 44 42 46 50 53 56 53 56 58 58 63 68 73 77 77 79
17 13 8 5 9 11 13 18 22 24 25 27 31 35 38 40 40 43 48 53 55 59 62 60 61 63 66 70 74 75 83 86
23 18 14 11 8 7 8 11 15 16 19 22 25 30 35 39 42 48 52 58 61 63 70 70 67 70 72 75 76 77 82 87
28 25 20 16 14 14 15 16 18 22 26 29 33 37 42 47 50 55 57 62 66 69 75 78 77 76 74 74 75 76 78 80
23 22 20 19 19 20 21 23 25 28 31 35 39 42 45 48 51 56 56 60 67 68 71 75 76 72 73 74 75 74 71 71
26 23 21 21 22 25 27 31 33 34 37 41 43 44 46 49 48 46 52 50 54 59 65 68 73 71 70 71 72 66 61 65
22 23 24 26 29 32 35 37 39 39 37 36 37 39 41 43 49 54 48 56 54 56 59 64 71 69 67 66 64 68 69 70
29 30 33 34 35 35 33 33 34 35 38 38 39 44 48 51 56 61 67 69 67 62 70 73 75 76 74 72 67 69 65 85
33 32 31 31 32 35 36 36 36 37 40 43 47 52 57 62 65 69 74 79 85 87 81 79 83 86 83 76 72 73 74 72
Wind_Direction_850mb
195 195 198 198 197 201 205 205 206 208 213 217 213 214 203 182 166 167 173 169 271 285 274 227 230 246 281 303 307 310 306 297
182 187 192 195 201 203 202 208 210 212 212 200 197 183 180 175 156 173 204 253 273 253 232 231 239 262 281 288 296 297 298 295
183 185 190 192 194 197 196 197 202 195 187 189 185 175 160 152 167 213 249 250 232 230 232 243 255 268 277 282 287 293 293 288
176 179 182 182 185 185 184 182 187 190 178 166 160 139 147 192 206 247 238 228 235 234 245 253 263 273 274 278 283 286 286 285
166 169 167 169 166 169 170 165 170 158 146 136 148 160 185 209 228 234 236 240 240 242 253 263 268 270 274 280 282 281 280 279
155 156 161 161 161 174 164 162 159 149 145 145 164 188 214 230 229 232 241 246 248 258 268 273 272 274 277 279 279 278 278 279
141 155 153 158 153 147 136 143 148 152 152 173 193 238 245 233 229 250 255 261 269 272 272 271 275 277 279 280 280 279 281 282
140 148 145 152 147 146 142 151 165 172 185 202 250 262 252 234 250 263 269 273 274 272 275 278 279 279 279 281 282 282 282 281
148 144 146 145 145 148 154 162 178 199 226 255 264 257 242 255 273 280 277 276 276 278 280 280 281 279 280 282 282 282 284 284
139 142 146 147 156 165 171 187 220 264 281 280 266 250 256 269 281 285 280 283 284 282 279 279 279 278 280 283 285 287 288 287
126 131 138 150 166 189 230 260 276 280 281 264 257 262 271 280 283 281 281 279 277 279 280 280 282 281 285 286 285 286 289 289
120 129 146 176 213 248 269 278 279 276 280 276 273 272 278 282 285 280 278 280 281 282 284 284 286 286 285 285 286 289 290 287
113 122 140 199 239 255 273 286 292 293 290 285 282 281 280 281 284 287 286 286 287 287 285 283 283 286 287 287 287 288 287 286
86 85 80 65 40 7 338 326 323 318 309 302 301 296 293 291 289 287 284 283 284 286 286 288 289 289 288 288 288 287 284 285
69 68 62 52 33 13 354 333 320 316 308 300 292 287 285 284 285 285 288 292 293 295 297 300 299 298 298 294 290 287 284 284
56 49 36 24 11 356 345 331 317 307 302 301 302 303 302 302 303 303 304 302 302 303 302 303 303 305 303 301 296 292 287 282
48 36 21 4 348 335 325 320 315 312 311 310 310 309 310 309 308 305 306 306 307 310 312 313 310 311 310 307 303 296 292 287
17 5 351 338 330 327 325 323 323 323 321 321 322 323 323 320 318 319 316 318 317 315 314 311 312 311 307 302 294 286 286 274
355 349 343 339 336 334 332 332 333 333 330 329 328 325 323 323 321 319 316 314 312 312 313 312 310 308 307 305 298 289 277 271
348 346 344 340 338 338 340 337 336 332 328 326 326 325 322 318 316 314 313 313 313 312 310 310 308 307 307 306 300 295 289 276